This is the latest recevied weather packets stored in our database for station/object W0WFX-2. If no packets are shown the sender has not sent any weather packets the latest 10 day(s).
| Time | Temp. | Humidity | Pressure | Rain* | Wind** | Luminosity | Snow |
|---|---|---|---|---|---|---|---|
| 1787838794 | 21.67° C | 80% | 1019.3 hPa | 0 mm | - | 58 W/m² | - |
| 1787838489 | 21.67° C | 80% | 1019.3 hPa | 0 mm | - | 56 W/m² | - |
| 1787838188 | 21.11° C | 83% | 1019.3 hPa | 0 mm | - | 58 W/m² | - |
| 1787837888 | 21.11° C | 83% | 1019.5 hPa | 0 mm | - | 52 W/m² | - |
| 1787837587 | 21.11° C | 83% | 1019.4 hPa | 0 mm | - | 50 W/m² | - |
| 1787837287 | 20.56° C | 84% | 1019.2 hPa | 0 mm | - | 48 W/m² | - |
| 1787836982 | 20.56° C | 85% | 1019.1 hPa | 0 mm | - | 47 W/m² | - |
| 1787836677 | 20° C | 87% | 1019.2 hPa | 0 mm | - | 45 W/m² | - |
| 1787836376 | 20° C | 90% | 1019.2 hPa | 0 mm | - | 45 W/m² | - |
| 1787836072 | 19.44° C | 91% | 1018.8 hPa | 0 mm | - | 44 W/m² | - |
| 1787835768 | 19.44° C | 91% | 1018.9 hPa | 0 mm | - | 40 W/m² | - |
| 1787835467 | 18.89° C | 92% | 1019.1 hPa | 0 mm | - | 37 W/m² | - |
| 1787835163 | 18.89° C | 92% | 1018.7 hPa | 0 mm | - | 33 W/m² | - |
| 1787834863 | 18.89° C | 93% | 1018.7 hPa | 0 mm | - | 31 W/m² | - |
| 1787834557 | 18.33° C | 93% | 1018.7 hPa | 0 mm | - | 30 W/m² | - |
| 1787834252 | 18.33° C | 93% | 1018.7 hPa | 0 mm | - | 28 W/m² | - |
| 1787833948 | 18.33° C | 93% | 1018.6 hPa | 0 mm | - | 25 W/m² | - |
| 1787833643 | 18.33° C | 93% | 1018.8 hPa | 0 mm | - | 23 W/m² | - |
| 1787833339 | 18.33° C | 93% | 1018.6 hPa | 0 mm | - | 21 W/m² | - |
| 1787833034 | 17.78° C | 93% | 1018.6 hPa | 0 mm | - | 19 W/m² | - |
| 1787832730 | 17.78° C | 93% | 1018.5 hPa | 0 mm | - | 16 W/m² | - |
| 1787832429 | 17.78° C | 93% | 1018.6 hPa | 0 mm | - | 14 W/m² | - |
| 1787832128 | 17.78° C | 93% | 1018.4 hPa | 0 mm | - | 11 W/m² | - |
| 1787831826 | 17.78° C | 94% | 1018.4 hPa | 0 mm | - | 9 W/m² | - |
| 1787831522 | 17.78° C | 94% | 1018 hPa | 0 mm | - | 6 W/m² | - |
* Rain latest hour (hover to see other rain measurements)
** Current wind speed in m/s (hover to see current wind gust speed)